N9OKI Weather Reports


time (UTC)temp
F
wind
direction
speed
knots
gust
knots
rain 1hr
in
rain 24hr
in
rain mn
in
humidity
%
barometer
mb
20220812000038 84 328 0.0 0.0 0.00 0.01 0.01 55 1015.7
20220811234529 84 328 0.0 0.0 0.00 0.38 0.01 55 1015.8
20220811233033 84 327 0.0 0.0 0.00 0.38 0.01 53 1015.9
20220811231523 85 344 0.0 0.0 0.00 0.38 0.01 53 1015.8
20220811230045 85 5 0.0 0.0 0.00 0.38 0.01 52 1015.8
20220811224521 85 28 0.0 0.0 0.00 0.46 0.01 52 1015.7
20220811223021 85 355 0.0 0.0 0.00 0.46 0.01 51 1015.8
20220811221521 85 313 0.0 0.0 0.00 0.46 0.01 49 1016.0
20220811220032 85 338 0.0 0.0 0.00 0.46 0.01 48 1016.0
20220811214518 86 9 0.0 0.0 0.00 0.46 0.01 49 1016.0
20220811213018 85 55 0.0 0.0 0.00 0.46 0.01 49 1015.8
20220811211517 86 329 0.0 0.0 0.00 0.46 0.01 49 1016.0
20220811210014 86 26 0.0 0.0 0.00 0.46 0.01 49 1016.1
20220811204522 87 303 0.0 0.0 0.00 0.46 0.01 47 1016.3
20220811203011 86 344 0.0 0.0 0.00 0.46 0.01 47 1016.4
20220811201510 86 44 0.0 0.0 0.00 0.46 0.01 49 1016.5
20220811200012 87 257 0.0 0.0 0.00 0.46 0.01 49 1016.6
20220811194506 87 269 0.0 0.0 0.00 0.49 0.01 48 1016.7
20220811193004 86 5 0.0 0.0 0.00 0.49 0.01 46 1016.9
20220811191503 85 355 0.0 0.0 0.00 0.49 0.01 49 1017.0
20220811190002 85 13 0.0 0.0 0.00 0.49 0.01 46 1017.2
20220811184618 85 13 0.0 0.0 0.00 0.70 0.01 50 1017.4
20220811183058 86 355 0.0 0.0 0.00 0.70 0.01 52 1017.5
20220811181556 84 219 0.0 0.0 0.00 0.70 0.01 51 1017.6
20220811180053 83 350 0.0 0.0 0.00 0.70 0.01 52 1017.8
20220811174602 83 334 0.0 0.0 0.00 0.73 0.01 55 1017.9
20220811173049 83 229 0.0 0.0 0.00 0.73 0.01 51 1018.0
20220811171633 83 91 0.0 0.0 0.00 0.73 0.01 52 1018.2
20220811170045 83 342 0.0 0.0 0.00 0.73 0.01 55 1018.4
20220811164545 81 38 0.0 0.0 0.00 0.73 0.01 56 1018.4
20220811163041 82 313 0.0 0.0 0.00 0.73 0.01 55 1018.4
20220811161541 80 306 0.0 0.0 0.00 0.73 0.01 56 1018.5
20220811160036 81 350 0.0 0.0 0.00 0.73 0.01 58 1018.7
20220811154535 80 346 0.0 0.0 0.00 0.73 0.01 58 1018.8
20220811153031 79 207 0.0 0.0 0.00 0.73 0.01 60 1018.8
20220811151528 79 355 0.0 0.0 0.00 0.73 0.01 61 1018.8
20220811150029 78 44 0.0 0.0 0.00 0.73 0.01 63 1018.8
20220811144520 75 28 0.0 0.0 0.00 0.73 0.01 72 1018.8
20220811143034 73 55 0.0 0.0 0.00 0.73 0.01 83 1018.7
20220811141517 71 32 0.0 0.0 0.00 0.73 0.01 88 1018.7
20220811140019 70 62 0.0 0.0 0.00 0.73 0.01 90 1018.6
20220811134512 69 19 0.0 0.0 0.00 0.73 0.01 90 1018.8
20220811133014 69 5 0.0 0.0 0.00 0.73 0.01 90 1018.6
20220811131510 69 5 0.0 0.0 0.00 0.73 0.01 90 1018.6
20220811130008 69 304 0.0 0.0 0.00 0.73 0.01 91 1018.6
20220811124520 68 213 0.0 0.0 0.00 0.73 0.01 90 1018.5
20220811123014 67 213 0.0 0.0 0.00 0.73 0.01 90 1018.3
20220811121504 67 213 0.0 0.0 0.00 0.73 0.01 90 1018.2
20220811120001 67 213 0.0 0.0 0.00 0.73 0.01 90 1018.3
20220811114620 66 213 0.0 0.0 0.00 0.73 0.01 90 1018.3
20220811113105 66 213 0.0 0.0 0.00 0.73 0.01 90 1018.2
20220811111557 67 213 0.0 0.0 0.00 0.73 0.01 90 1018.1
20220811110054 67 213 0.0 0.0 0.00 0.73 0.01 89 1018.0
20220811104624 67 213 0.0 0.0 0.00 0.73 0.01 89 1017.9
20220811103101 67 213 0.0 0.0 0.01 0.73 0.01 89 1017.8
20220811101600 67 213 0.0 0.0 0.01 0.73 0.01 89 1017.6
20220811100120 68 213 0.0 0.0 0.01 0.73 0.01 89 1017.7
20220811094548 68 213 0.0 0.0 0.01 0.73 0.01 89 1017.7
20220811093054 68 213 0.0 0.0 0.00 0.72 0.00 89 1017.7
20220811091546 68 213 0.0 0.0 0.00 0.72 0.00 89 1017.8
20220811090045 69 213 0.0 0.0 0.00 0.72 0.00 89 1018.0
20220811084543 69 213 0.0 0.0 0.00 0.72 0.00 89 1017.9
20220811083041 69 213 0.0 0.0 0.00 0.72 0.00 89 1017.8
20220811081545 69 213 0.0 0.0 0.00 0.72 0.00 89 1017.7
20220811080048 70 213 0.0 0.0 0.00 0.72 0.00 89 1017.8
20220811074536 70 213 0.0 0.0 0.00 0.72 0.00 89 1017.7
20220811073040 70 213 0.0 0.0 0.00 0.72 0.00 89 1017.8
20220811071610 71 213 0.0 0.0 0.00 0.72 0.00 89 1017.6
20220811070035 71 213 0.0 0.0 0.00 0.72 0.00 89 1017.8
20220811064533 71 213 0.0 0.0 0.00 0.72 0.00 89 1017.7
20220811063035 72 213 0.0 0.0 0.00 0.72 0.00 89 1017.6
20220811061534 72 213 0.0 0.0 0.00 0.72 0.00 89 1017.7
20220811060027 72 213 0.0 0.0 0.00 0.72 0.00 89 1017.7
20220811054525 72 213 0.0 0.0 0.00 0.72 0.00 89 1017.6
20220811053024 73 213 0.0 0.0 0.00 0.72 0.00 89 1017.5
20220811051526 73 213 0.0 0.0 0.00 0.72 0.00 89 1017.6
20220811050035 73 212 0.0 0.0 0.00 0.72 0.00 88 1017.7
20220811044527 73 212 0.0 0.0 0.00 0.72 0.00 88 1017.6
20220811043034 73 212 0.0 0.0 0.00 0.72 0.00 88 1017.7
20220811041517 74 212 0.0 0.0 0.00 0.72 0.00 88 1017.5
20220811040030 74 212 0.0 0.0 0.00 0.72 0.00 88 1017.5
20220811034530 74 212 0.0 0.0 0.00 0.72 0.72 88 1017.4
20220811033017 75 212 0.0 0.0 0.00 0.72 0.72 88 1017.5
20220811030010 75 212 0.0 0.0 0.00 0.72 0.72 88 1017.9
20220811024515 75 212 0.0 0.0 0.00 0.72 0.72 87 1017.9
20220811023010 75 212 0.0 0.0 0.00 0.72 0.72 87 1017.8
20220811021510 75 212 0.0 0.0 0.00 0.72 0.72 87 1017.7
20220811020006 75 214 0.0 0.0 0.00 0.72 0.72 87 1017.5
20220811014505 76 212 0.0 0.0 0.00 0.72 0.72 86 1017.4
20220811013009 76 215 0.0 0.0 0.00 0.72 0.72 86 1017.0
20220811011505 76 215 0.0 0.0 0.00 0.72 0.72 86 1016.9
20220811010003 76 215 0.0 0.0 0.00 0.72 0.72 85 1016.9
20220811004505 77 157 0.0 1.7 0.18 0.74 0.72 85 1016.8
20220811003002 77 123 0.0 0.0 0.37 0.74 0.72 85 1016.7
20220811001509 78 123 0.0 0.0 0.37 0.74 0.72 84 1016.7